Simultaneous Nadir Overpasses (SNOs) Predictions

Prediction of SNOs between NOAA-19 and NPP Satellite Orbit:

Table of predicted SNOs for the next 14.0 days since TLE Epoch: 6/5/2015
Index Date (NOAA-19) Time (NOAA-19) Lat,Lon (NOAA-19) SZA (NOAA-19 ) Date (NPP) Time (NPP) Lat,Lon (NPP) SZA (NPP ) Distance(km) Time Diff (sec)
1 06/14/2015 04:58:59 81.03, 52.93 61.46 06/14/2015 04:59:57 81.02, 53.04 61.41 2.06 58
2 06/14/2015 05:49:55 -81.03,-139.79 118.54 06/14/2015 05:50:42 -81.02,-139.68 118.59 2.08 47
3 06/14/2015 06:41:01 81.02, 27.67 61.43 06/14/2015 06:41:27 81.02, 27.62 61.42 0.84 26
4 06/14/2015 07:31:57 -81.02,-165.06 118.58 06/14/2015 07:32:12 -81.02,-165.10 118.58 0.74 15
5 06/14/2015 08:23:04 81.03, 2.03 61.44 06/14/2015 08:22:57 81.02, 2.20 61.42 2.95 7
6 06/14/2015 09:14:00 -81.03, 169.30 118.57 06/14/2015 09:13:42 -81.03, 169.48 118.58 3.05 18
7 06/14/2015 10:05:06 81.02, -23.24 61.40 06/14/2015 10:04:27 81.03, -23.23 61.43 0.56 39
8 06/14/2015 10:56:01 -81.02, 144.42 118.65 06/14/2015 10:55:11 -81.01, 144.42 118.63 0.47 50




NCC Satellite Simultaneous Nadir Overpasses (SNOs) Prediction Service
